logo tempoitalia

Diretta Meteo Kzyl-Orda, Kazakhstanlunedì 31 agosto ore 10:00

Mappa
Sereno 21 °C Sereno 24 Ore: T.min 15 T.max 33
Ponente Nord-Est Km/h 28.8 Punto di rugiada: -1 °C Umidità: 22% Visibilità: 10 Km
Il sole sorge alle: 05:58 Il sole tramonta alle: 19:17
31 Agosto 2026 10:00 tempo osservato: Sereno Sereno 21 22 1016 vento: Nord NE 28.8
31 Agosto 2026 09:30 tempo osservato: Sereno Sereno 20 22 1016 vento: Nord N/NE 28.8
31 Agosto 2026 09:00 tempo osservato: Sereno Sereno 20 22 1016 vento: Nord NE 25.2
31 Agosto 2026 08:30 tempo osservato: Sereno Sereno 18 25 1015 vento: Nord N/NE 25.2
31 Agosto 2026 08:00 tempo osservato: Sereno Sereno 17 27 1015 vento: Nord N/NE 25.2
31 Agosto 2026 07:30 tempo osservato: Sereno Sereno 17 27 1014 vento: Nord N/NE 21.6
31 Agosto 2026 07:00 tempo osservato: Sereno Sereno 16 29 1014 vento: Nord N 21.6
31 Agosto 2026 06:30 tempo osservato: Sereno Sereno 15 28 1014 vento: Nord N 21.6
31 Agosto 2026 06:00 tempo osservato: Sereno Sereno 16 26 1013 vento: Nord N/NE 21.6
31 Agosto 2026 05:30 tempo osservato: Sereno Sereno 17 25 1013 vento: Nord N/NE 21.6
31 Agosto 2026 05:00 tempo osservato: Sereno Sereno 17 25 1013 vento: Nord N/NE 21.6
31 Agosto 2026 04:30 tempo osservato: Sereno Sereno 17 23 1013 vento: Nord N/NE 21.6
31 Agosto 2026 04:00 tempo osservato: Sereno Sereno 17 23 1012 vento: Nord N 21.6
31 Agosto 2026 03:00 tempo osservato: Sereno Sereno 17 23 1012 vento: Nord N 18
31 Agosto 2026 02:00 tempo osservato: Sereno Sereno 19 20 1011 vento: Nord N 21.6
31 Agosto 2026 01:00 tempo osservato: Sereno Sereno 21 18 1011 vento: Nord N 25.2
31 Agosto 2026 00:00 tempo osservato: Sereno Sereno 22 17 1011 vento: Nord N 21.6
30 Agosto 2026 23:00 tempo osservato: Sereno Sereno 23 17 1011 vento: Nord N 21.6
30 Agosto 2026 22:00 tempo osservato: Sereno Sereno 24 20 1011 vento: Nord N 21.6
30 Agosto 2026 21:30 tempo osservato: Sereno Sereno 25 19 1011 vento: Nord N 21.6
30 Agosto 2026 21:00 tempo osservato: Sereno Sereno 26 20 1011 vento: Nord N 25.2
30 Agosto 2026 20:30 tempo osservato: Sereno Sereno 27 22 1010 vento: Nord N 25.2
30 Agosto 2026 20:00 tempo osservato: Sereno Sereno 27 22 1009 vento: Nord N 18
30 Agosto 2026 19:30 tempo osservato: Sereno Sereno 27 24 1009 vento: Nord N 18
30 Agosto 2026 19:00 tempo osservato: Sereno Sereno 29 21 1009 vento: Nord N 18
30 Agosto 2026 18:30 tempo osservato: Sereno Sereno 30 23 1009 vento: Nord N 14.4
30 Agosto 2026 18:00 tempo osservato: Sereno Sereno 30 22 1009 vento: Nord N 18
30 Agosto 2026 17:30 tempo osservato: Sereno Sereno 31 23 1009 vento: Nord N 21.6
30 Agosto 2026 17:00 tempo osservato: Sereno Sereno 31 23 1009 vento: Nord N 21.6
30 Agosto 2026 16:30 tempo osservato: Sereno Sereno 32 24 1009 vento: Nord N 21.6
30 Agosto 2026 16:00 tempo osservato: Sereno Sereno 32 24 1009 vento: Nord N 21.6
30 Agosto 2026 15:30 tempo osservato: Sereno Sereno 33 24 1009 vento: Nord N/NO 18
30 Agosto 2026 15:00 tempo osservato: Sereno Sereno 32 27 1009 vento: Nord N/NO 21.6
30 Agosto 2026 14:30 tempo osservato: Sereno Sereno 33 26 1009 vento: Nord N/NO 18
30 Agosto 2026 14:00 tempo osservato: Sereno Sereno 32 27 1009 vento: Nord N 14.4
30 Agosto 2026 13:30 tempo osservato: Sereno Sereno 31 29 1009 vento: Nord NO 14.4
30 Agosto 2026 13:00 tempo osservato: Nuvoloso Nuvoloso 33 24 1010 vento: Nord N 14.4
30 Agosto 2026 12:30 tempo osservato: Nuvoloso Nuvoloso 32 24 1010 vento: Nord N/NE 18
30 Agosto 2026 12:00 tempo osservato: Nuvoloso Nuvoloso 32 24 1010 vento: Nord E/NE 18
30 Agosto 2026 11:30 tempo osservato: Molto Nuvoloso Molto Nuvoloso 31 25 1010 vento: Nord NE 18
30 Agosto 2026 11:00 tempo osservato: Molto Nuvoloso Molto Nuvoloso 29 28 1010 vento: Nord E/NE 18